EJU386B LFKB-LFLL

Flight info

Callsign EJU386B
Flight time 0h 54m
Altitude 32000
Route MOULE L146 BTA G702 MILNO A3 SODRI G374 DIVUL/N0345F180 G374 PERUS A3 RETNO Z42 PINED
Aircraft A320/M-SDE2E3FGHIJ1RWXYZ/LB1

Departure

Time 2026-04-17 02:15
Airport Bastia-Poretta International airport (LFKB)

Arrival

Time 2026-04-17 03:10
Airport Lyon Saint-Exupéry Airport (LFLL)
Time Latitude Longitude Altitude Speed Heading
2026-04-17 02:03 42.54880 9.48136 35 ft 0 kts 254°
2026-04-17 02:06 42.54884 9.48157 59 ft 4 kts 252°
2026-04-17 02:06 42.54892 9.48190 35 ft 3 kts 252°
2026-04-17 02:07 42.54897 9.48225 32 ft 4 kts 282°
2026-04-17 02:07 42.54885 9.48254 35 ft 4 kts 335°
2026-04-17 02:07 42.54876 9.48259 35 ft 1 kts 343°
2026-04-17 02:07 42.54875 9.48259 35 ft 0 kts 343°
2026-04-17 02:12 42.54877 9.48259 35 ft 3 kts 343°
2026-04-17 02:12 42.54970 9.48220 35 ft 24 kts 343°
2026-04-17 02:12 42.55188 9.48152 35 ft 40 kts 341°
2026-04-17 02:12 42.55490 9.48023 35 ft 51 kts 342°
2026-04-17 02:13 42.55829 9.47870 26 ft 48 kts 341°
2026-04-17 02:13 42.55953 9.47932 25 ft 7 kts 102°
2026-04-17 02:13 42.55963 9.48008 26 ft 12 kts 68°
2026-04-17 02:13 42.56063 9.48036 24 ft 20 kts 343°
2026-04-17 02:14 42.56223 9.47964 24 ft 27 kts 329°
2026-04-17 02:14 42.56325 9.47894 22 ft 8 kts 35°
2026-04-17 02:14 42.56312 9.47933 22 ft 10 kts 140°
2026-04-17 02:14 42.56288 9.47946 22 ft 0 kts 162°
2026-04-17 02:15 42.56102 9.48024 25 ft 67 kts 163°
2026-04-17 02:15 42.55441 9.48302 35 ft 129 kts 161°
2026-04-17 02:15 42.54426 9.48712 181 ft 163 kts 166°
2026-04-17 02:15 42.53363 9.49186 806 ft 163 kts 148°
2026-04-17 02:16 42.52703 9.50384 1299 ft 169 kts 96°
2026-04-17 02:16 42.52989 9.51964 1577 ft 184 kts 55°
2026-04-17 02:16 42.53892 9.53298 1887 ft 204 kts 44°
2026-04-17 02:16 42.54770 9.54957 2201 ft 230 kts 60°
2026-04-17 02:17 42.55515 9.56999 2635 ft 252 kts 64°
2026-04-17 02:17 42.56251 9.59197 3396 ft 258 kts 65°
2026-04-17 02:17 42.57008 9.61427 4270 ft 262 kts 64°
2026-04-17 02:17 42.57798 9.63657 5152 ft 264 kts 64°
2026-04-17 02:18 42.58638 9.65885 6023 ft 267 kts 58°
2026-04-17 02:18 42.59880 9.67757 6841 ft 271 kts 37°
2026-04-17 02:18 42.61597 9.68850 7607 ft 277 kts 13°
2026-04-17 02:18 42.63532 9.68933 8387 ft 283 kts 350°
2026-04-17 02:19 42.65376 9.67951 9160 ft 289 kts 327°
2026-04-17 02:19 42.66794 9.66057 9919 ft 295 kts 306°
2026-04-17 02:19 42.67984 9.63750 10512 ft 305 kts 306°
2026-04-17 02:19 42.69241 9.61292 10725 ft 328 kts 305°
2026-04-17 02:20 42.70563 9.58700 11236 ft 338 kts 306°
2026-04-17 02:20 42.71910 9.56063 11932 ft 341 kts 306°
2026-04-17 02:20 42.73269 9.53406 12678 ft 344 kts 306°
2026-04-17 02:20 42.74643 9.50721 13412 ft 346 kts 306°
2026-04-17 02:21 42.76025 9.48023 14113 ft 349 kts 306°
2026-04-17 02:21 42.77417 9.45301 14735 ft 352 kts 306°
2026-04-17 02:21 42.78821 9.42555 15374 ft 355 kts 306°
2026-04-17 02:21 42.80233 9.39790 15997 ft 357 kts 306°
2026-04-17 02:22 42.81658 9.36996 16609 ft 360 kts 307°
2026-04-17 02:22 42.83094 9.34178 17188 ft 363 kts 307°
2026-04-17 02:22 42.84540 9.31341 17811 ft 366 kts 307°
2026-04-17 02:22 42.85998 9.28478 18415 ft 369 kts 307°
2026-04-17 02:23 42.87467 9.25594 18930 ft 372 kts 307°
2026-04-17 02:23 42.88873 9.22614 19445 ft 376 kts 300°
2026-04-17 02:23 42.89879 9.19298 19964 ft 382 kts 289°
2026-04-17 02:23 42.90444 9.15727 20491 ft 387 kts 282°
2026-04-17 02:24 42.90924 9.12112 21010 ft 389 kts 282°
2026-04-17 02:24 42.91414 9.08468 21532 ft 392 kts 283°
2026-04-17 02:24 42.91910 9.04801 22041 ft 394 kts 283°
2026-04-17 02:24 42.92410 9.01107 22567 ft 397 kts 283°
2026-04-17 02:25 42.92910 8.97396 23074 ft 399 kts 283°
2026-04-17 02:25 42.93411 8.93655 23577 ft 402 kts 283°
2026-04-17 02:25 42.93913 8.89890 24004 ft 404 kts 282°
2026-04-17 02:25 42.94404 8.86153 24397 ft 407 kts 282°
2026-04-17 02:26 42.94896 8.82350 24791 ft 409 kts 282°
2026-04-17 02:26 42.95392 8.78509 25168 ft 411 kts 282°
2026-04-17 02:26 42.95914 8.74662 25532 ft 413 kts 283°
2026-04-17 02:26 42.96470 8.70804 25910 ft 415 kts 284°
2026-04-17 02:27 42.97042 8.66937 26273 ft 417 kts 284°
2026-04-17 02:27 42.97617 8.63045 26624 ft 419 kts 284°
2026-04-17 02:27 42.98190 8.59130 26972 ft 422 kts 283°
2026-04-17 02:27 42.98762 8.55184 27320 ft 424 kts 283°
2026-04-17 02:28 42.99328 8.51227 27660 ft 426 kts 283°
2026-04-17 02:28 42.99892 8.47249 27995 ft 428 kts 283°
2026-04-17 02:28 43.00456 8.43242 28322 ft 430 kts 283°
2026-04-17 02:28 43.01063 8.39239 28628 ft 431 kts 288°
2026-04-17 02:29 43.02051 8.35372 28940 ft 430 kts 297°
2026-04-17 02:29 43.03420 8.31733 29242 ft 431 kts 300°
2026-04-17 02:29 43.04840 8.28117 29542 ft 433 kts 300°
2026-04-17 02:29 43.06265 8.24477 29835 ft 435 kts 300°
2026-04-17 02:30 43.07691 8.20821 30136 ft 437 kts 300°
2026-04-17 02:30 43.09123 8.17140 30375 ft 439 kts 300°
2026-04-17 02:30 43.10556 8.13444 30617 ft 440 kts 300°
2026-04-17 02:30 43.11990 8.09737 30862 ft 441 kts 300°
2026-04-17 02:31 43.13421 8.06025 31104 ft 442 kts 300°
2026-04-17 02:31 43.14856 8.02298 31363 ft 442 kts 300°
2026-04-17 02:31 43.16287 7.98577 31707 ft 440 kts 300°
2026-04-17 02:31 43.17693 7.94924 32022 ft 439 kts 300°
2026-04-17 02:32 43.19112 7.91230 32117 ft 434 kts 300°
2026-04-17 02:32 43.20494 7.87619 32128 ft 422 kts 300°
2026-04-17 02:32 43.21846 7.84077 32127 ft 418 kts 300°
2026-04-17 02:33 43.24535 7.77039 32124 ft 416 kts 300°
2026-04-17 02:33 43.27217 7.70009 32123 ft 415 kts 300°
2026-04-17 02:34 43.29892 7.62984 32124 ft 415 kts 299°
2026-04-17 02:34 43.32438 7.55865 32123 ft 416 kts 297°
2026-04-17 02:35 43.34829 7.48630 32119 ft 416 kts 296°
2026-04-17 02:35 43.38400 7.37783 32116 ft 415 kts 296°
2026-04-17 02:36 43.40810 7.30576 32116 ft 415 kts 296°
2026-04-17 02:36 43.43228 7.23375 32117 ft 414 kts 296°
2026-04-17 02:37 43.45625 7.16173 32120 ft 414 kts 296°
2026-04-17 02:37 43.48481 7.09412 32122 ft 410 kts 311°
2026-04-17 02:38 43.52691 7.04180 32123 ft 408 kts 322°
2026-04-17 02:38 43.57134 6.99308 32121 ft 408 kts 322°
2026-04-17 02:39 43.61565 6.94391 32121 ft 409 kts 322°
2026-04-17 02:39 43.65996 6.89482 32124 ft 408 kts 322°
2026-04-17 02:40 43.70429 6.84573 32127 ft 408 kts 322°
2026-04-17 02:40 43.74864 6.79658 32132 ft 408 kts 322°
2026-04-17 02:41 43.79290 6.74739 32145 ft 408 kts 321°
2026-04-17 02:41 43.83720 6.69809 32154 ft 408 kts 321°
2026-04-17 02:42 43.87814 6.64386 32158 ft 409 kts 307°
2026-04-17 02:42 43.91111 6.57962 32167 ft 409 kts 306°
2026-04-17 02:43 43.94407 6.51537 32165 ft 409 kts 306°
2026-04-17 02:43 43.97679 6.45153 32168 ft 408 kts 306°
2026-04-17 02:44 44.00957 6.38719 32169 ft 408 kts 306°
2026-04-17 02:44 44.04228 6.32272 32176 ft 408 kts 306°
2026-04-17 02:45 44.07505 6.25823 32175 ft 408 kts 306°
2026-04-17 02:45 44.10771 6.19373 32182 ft 408 kts 306°
2026-04-17 02:46 44.14027 6.12919 32181 ft 407 kts 305°
2026-04-17 02:46 44.17250 6.06440 32184 ft 407 kts 304°
2026-04-17 02:47 44.20354 5.99892 32124 ft 397 kts 303°
2026-04-17 02:47 44.21843 5.96706 31800 ft 390 kts 303°
2026-04-17 02:47 44.23316 5.93557 31377 ft 386 kts 303°
2026-04-17 02:48 44.24779 5.90439 30926 ft 383 kts 303°
2026-04-17 02:48 44.26236 5.87348 30467 ft 381 kts 304°
2026-04-17 02:48 44.27688 5.84274 29970 ft 379 kts 304°
2026-04-17 02:48 44.29133 5.81214 29479 ft 376 kts 304°
2026-04-17 02:49 44.30568 5.78172 28989 ft 374 kts 303°
2026-04-17 02:49 44.31991 5.75150 28525 ft 371 kts 304°
2026-04-17 02:49 44.33402 5.72149 28069 ft 369 kts 304°
2026-04-17 02:49 44.34786 5.69203 27619 ft 366 kts 303°
2026-04-17 02:50 44.36304 5.66373 27168 ft 363 kts 314°
2026-04-17 02:50 44.38216 5.64085 26712 ft 361 kts 327°
2026-04-17 02:50 44.40419 5.62473 26260 ft 359 kts 339°
2026-04-17 02:50 44.42833 5.61579 25820 ft 358 kts 351°
2026-04-17 02:51 44.45300 5.61168 25375 ft 356 kts 352°
2026-04-17 02:51 44.47755 5.60767 24935 ft 354 kts 352°
2026-04-17 02:51 44.50196 5.60366 24525 ft 352 kts 352°
2026-04-17 02:51 44.52619 5.59965 24125 ft 350 kts 352°
2026-04-17 02:52 44.55035 5.59567 23701 ft 348 kts 352°
2026-04-17 02:52 44.57432 5.59173 23236 ft 346 kts 352°
2026-04-17 02:52 44.59816 5.58782 22785 ft 344 kts 352°
2026-04-17 02:52 44.62187 5.58394 22352 ft 342 kts 352°
2026-04-17 02:53 44.64538 5.58008 21938 ft 340 kts 352°
2026-04-17 02:53 44.66882 5.57623 21528 ft 338 kts 352°
2026-04-17 02:53 44.68421 5.57371 21261 ft 336 kts 352°
2026-04-17 02:53 44.70743 5.56988 20840 ft 335 kts 352°
2026-04-17 02:54 44.73046 5.56605 20445 ft 333 kts 352°
2026-04-17 02:54 44.75343 5.56224 20063 ft 331 kts 352°
2026-04-17 02:54 44.77621 5.55846 19673 ft 329 kts 352°
2026-04-17 02:54 44.79895 5.55471 19288 ft 328 kts 352°
2026-04-17 02:55 44.82153 5.55098 18921 ft 326 kts 352°
2026-04-17 02:55 44.84404 5.54726 18567 ft 325 kts 352°
2026-04-17 02:55 44.86645 5.54358 18176 ft 323 kts 352°
2026-04-17 02:55 44.88875 5.53988 17790 ft 321 kts 352°
2026-04-17 02:56 44.91087 5.53617 17408 ft 320 kts 352°
2026-04-17 02:56 44.93291 5.53246 17035 ft 318 kts 352°
2026-04-17 02:56 44.95479 5.52878 16663 ft 316 kts 352°
2026-04-17 02:56 44.97661 5.52512 16305 ft 315 kts 352°
2026-04-17 02:57 44.99831 5.52162 15974 ft 313 kts 355°
2026-04-17 02:57 45.02002 5.52108 15639 ft 312 kts 359°
2026-04-17 02:57 45.04171 5.52096 15293 ft 311 kts 358°
2026-04-17 02:57 45.06327 5.52080 14957 ft 310 kts 358°
2026-04-17 02:58 45.08476 5.52062 14635 ft 308 kts 358°
2026-04-17 02:58 45.10615 5.52044 14311 ft 307 kts 358°
2026-04-17 02:58 45.12744 5.52026 13977 ft 305 kts 359°
2026-04-17 02:58 45.14864 5.52008 13606 ft 304 kts 359°
2026-04-17 02:59 45.16978 5.51986 13229 ft 303 kts 359°
2026-04-17 02:59 45.19083 5.51963 12853 ft 302 kts 359°
2026-04-17 02:59 45.21155 5.51939 12509 ft 301 kts 359°
2026-04-17 02:59 45.23275 5.51912 12150 ft 300 kts 359°
2026-04-17 03:00 45.25331 5.51886 11805 ft 299 kts 359°
2026-04-17 03:00 45.27406 5.51842 11449 ft 298 kts 355°
2026-04-17 03:00 45.29434 5.51317 11084 ft 296 kts 344°
2026-04-17 03:00 45.31419 5.50556 10717 ft 295 kts 344°
2026-04-17 03:01 45.33388 5.49747 10357 ft 294 kts 337°
2026-04-17 03:01 45.35145 5.48319 10208 ft 291 kts 320°
2026-04-17 03:01 45.36534 5.46245 10216 ft 290 kts 304°
2026-04-17 03:01 45.37460 5.43712 10220 ft 290 kts 291°
2026-04-17 03:02 45.38207 5.41044 10222 ft 290 kts 291°
2026-04-17 03:02 45.38954 5.38386 10072 ft 288 kts 291°
2026-04-17 03:02 45.39695 5.35750 9618 ft 285 kts 291°
2026-04-17 03:02 45.40430 5.33140 9037 ft 284 kts 291°
2026-04-17 03:03 45.41159 5.30544 8471 ft 281 kts 291°
2026-04-17 03:03 45.41883 5.27970 7904 ft 279 kts 291°
2026-04-17 03:03 45.42602 5.25410 7351 ft 278 kts 291°
2026-04-17 03:03 45.43318 5.22857 6867 ft 277 kts 291°
2026-04-17 03:04 45.44031 5.20314 6488 ft 276 kts 292°
2026-04-17 03:04 45.44728 5.17816 6289 ft 266 kts 292°
2026-04-17 03:04 45.45410 5.15431 6160 ft 254 kts 297°
2026-04-17 03:04 45.46431 5.13481 5990 ft 241 kts 320°
2026-04-17 03:05 45.47833 5.12266 5734 ft 234 kts 341°
2026-04-17 03:05 45.49408 5.11821 5425 ft 230 kts 354°
2026-04-17 03:05 45.50997 5.11560 5094 ft 229 kts 354°
2026-04-17 03:05 45.52554 5.11298 4778 ft 227 kts 353°
2026-04-17 03:06 45.54116 5.11057 4476 ft 225 kts 355°
2026-04-17 03:06 45.55647 5.10865 4333 ft 216 kts 355°
2026-04-17 03:06 45.57113 5.10695 4203 ft 207 kts 355°
2026-04-17 03:06 45.58521 5.10534 4060 ft 199 kts 356°
2026-04-17 03:07 45.59864 5.10384 3954 ft 187 kts 355°
2026-04-17 03:07 45.61131 5.10234 3690 ft 182 kts 355°
2026-04-17 03:07 45.62458 5.10065 3048 ft 199 kts 355°
2026-04-17 03:07 45.63835 5.09897 2798 ft 188 kts 355°
2026-04-17 03:08 45.65017 5.09761 2872 ft 156 kts 355°
2026-04-17 03:08 45.66069 5.09636 2684 ft 150 kts 355°
2026-04-17 03:08 45.67108 5.09514 2208 ft 152 kts 356°
2026-04-17 03:08 45.68183 5.09394 1651 ft 158 kts 356°
2026-04-17 03:09 45.69279 5.09246 1249 ft 155 kts 355°
2026-04-17 03:09 45.70214 5.09141 1016 ft 146 kts 354°
2026-04-17 03:09 45.71214 5.09020 854 ft 142 kts 355°
2026-04-17 03:09 45.72092 5.08922 809 ft 119 kts 354°
2026-04-17 03:10 45.72668 5.08841 791 ft 76 kts 354°
2026-04-17 03:10 45.72942 5.08738 792 ft 26 kts 297°
2026-04-17 03:10 45.72940 5.08488 790 ft 26 kts 265°
2026-04-17 03:10 45.72840 5.08335 790 ft 20 kts 173°
2026-04-17 03:11 45.72707 5.08372 791 ft 20 kts 174°
2026-04-17 03:11 45.72554 5.08394 796 ft 27 kts 175°
2026-04-17 03:11 45.72345 5.08413 798 ft 30 kts 174°
2026-04-17 03:11 45.72132 5.08446 803 ft 28 kts 173°
2026-04-17 03:12 45.71961 5.08464 802 ft 11 kts 186°
2026-04-17 03:12 45.71953 5.08395 800 ft 8 kts 277°
2026-04-17 03:12 45.71960 5.08318 799 ft 8 kts 277°
2026-04-17 03:12 45.71960 5.08246 798 ft 7 kts 242°
2026-04-17 03:13 45.71917 5.08211 797 ft 6 kts 204°
2026-04-17 03:13 45.71921 5.08173 797 ft 4 kts 296°
2026-04-17 03:13 45.71932 5.08141 796 ft 3 kts 295°
2026-04-17 03:13 45.71938 5.08116 796 ft 2 kts 288°
2026-04-17 03:14 45.71940 5.08108 796 ft 0 kts 283°
2026-04-17 03:14 45.71943 5.08086 797 ft 0 kts 282°
2026-04-17 03:14 45.71943 5.08084 796 ft 0 kts 282°